Location: Unspecified
(39.9267°N, 0.0000°E)
Time: 21:31:55
(UTC+00:00)

Hubble Space Telescope - Visible Passes

Search period start: 03 August 2020 00:00
Search period end: 13 August 2020 00:00
Orbit: 536 x 540 km, 28.5° (Epoch: 02 August)

Date Brightness Start Highest point End Pass type
(mag) Time Alt. Az. Time Alt. Az. Time Alt. Az.
10 Aug 3.2 04:15:08 10° S 04:16:00 11° SSE 04:16:51 10° SSE visible
11 Aug 3.0 04:03:31 10° S 04:05:09 12° SSE 04:06:47 10° SE visible
12 Aug 2.9 03:53:04 12° S 03:54:19 13° S 03:56:22 10° SE visible
